FENGYUN 2G (40367 NORAD) Tracking and Keplerian Element Data

This shows tracking and keplerian element data for the satellite.

Feedback or suggestion? Click here.




ElementValue
Catalog40367
NameFENGYUN 2G
Epoch Orbit1429
Epoch Day323.24586613
Epoch Year2018
RAAN107.7616
Inclination0.7601
Eccentricity0.0003193
Argument of Perigee254.9088
Mean Anonmoly243.6937
Mean Motion1.00271449
Decay Rate-2.91E-06
L11 40367U 14090A 18323.24586613 -.00000291 00000-0 00000+0 0 9998
L22 40367 0.7601 107.7616 0003193 254.9088 243.6937 1.00271449 14294

Live tracking and technical data element details for FENGYUN 2G (NORAD 40367). FENGYUN 2G can be tracked NOW for your location showing map with azimuth and elevation plus other details from your city location.

Track the satellite on the map from your city or location and see movement details for azimuth, elevation, latitude, longitude, range, height, and movement on the map or in text.







IsCatalogInMostPopularTable: catalog: 40367, numindb: 119
Update: records affected: 1



GetName: 40367 FENGYUN 2G

Hit Count: updated at: Mon, 19 Nov 2018 14:27:39 GMT